STARLINK-35761, 66961

Orbit data source: Space-Track

STARLINK-35761, 66961 is a payload satellite owned by SpaceX/Seattle (US) in LEO that was launched on Mon, 08 Dec 2025 UTC via an FALCON 9 launch vehicle from the Air Force Eastern Test Range (AFETR). Payload-class satellites include a variety of spacecraft equipped with specific instruments for various scientific and technological missions. These include communications satellites like Starlink; space stations such as the ISS; scientific satellites like the Hubble; Earth observation satellites from companies like Planet Labs, Umbra, and HawkEye 360; GPS; miniature CubeSats for education and research; and military/defense satellites.

Loading next visibility...
Identifier
66961, 2025-288C
Orbit
LEO
Country
Flag of USUS
Related business
Manufacturer
SpaceX/Seattle
Mission
Operational Commercial Communications
Bus & Motor
STARLINK V2MO, Unknown motor
Mass
575 kg wet, ~530 kg dry
Launch date (UTC)
2025-12-08 (7 months ago)
Launch vehicle
FALCON 9
Launch site
Air Force Eastern Test Range (AFETR)
Object type
Payload
Rocket body
Debris
Shape & HBR
Box + 2 Pan, 17.7 m
Radar Cross Section
36.964 m², Large (>1 m²)

Expand to show TLE details & history
Last TLE update: 10 hours ago

TLE from 10 hours ago
0 STARLINK-35761
1 66961U 25288C   26177.56990381  .00020947  00000-0  76846-3 0  9993
2 66961  43.0008 128.1784 0000980 269.1119  90.9621 15.27583863 31944
Epoch: 2026-06-26T13:40Z
TLE epoch observation values (Epoch: 2026-06-26T13:40:39.689Z)
Latitude
0.00004°
Longitude
8.31655°
Altitude
482.824 km
Speed
7.626 km/s
True Right ascension
08h 32m 42s
True Declination
0° 00' 00"
Sunlit
Object was in daylight at epoch
Visualization orbit readout
Latitude
Unknown
Longitude
Unknown
Altitude
Unknown
Speed
Unknown
Apparent Right ascension
Unknown
Apparent Declination
Unknown
Sunlit
N/A
Visualization observer readout
Local Sidereal Time
10:40:44
Azimuth
Unknown
Elevation
Unknown
Doppler factor
Unknown
Orbital elements
Apogee altitude
485.655 km
Perigee altitude
484.31 km
Semi-major axis
6,863.12 km
Eccentricity
0.0001
Inclination
43.0008°
RAAN
128.1784°
Arg. of periapsis
269.1119°
True anomaly
90.97333°
Mean anomaly
90.9621°
Eccentric anomaly
90.96771°
Mean motion
3.81734 °/min
Orbital period
94.31 mins
BSTAR
0.00076846
Loading maneuver chart data...
Computing Atmospheric mass density...
Loading historical data...
Loading historical data...
Loading historical data...
Loading historical data...
Loading historical data...
Loading historical data...
Loading historical data...

Documentation

Showing up to 5 results
|